This is the latest recevied weather packets stored in our database for station/object KO4T-4. If no packets are shown the sender has not sent any weather packets the latest 10 day(s).
| Time | Temp. | Humidity | Pressure | Rain* | Wind** | Luminosity | Snow |
|---|---|---|---|---|---|---|---|
| 1777571103 | 22.22° C | 43% | 1010.9 hPa | 0 mm | - | - | - |
| 1777570804 | 22.22° C | 44% | 1011 hPa | 0 mm | - | - | - |
| 1777570503 | 22.22° C | 41% | 1010.9 hPa | 0 mm | - | - | - |
| 1777570204 | 21.67° C | 40% | 1010.9 hPa | 0 mm | - | - | - |
| 1777569904 | 22.22° C | 40% | 1010.9 hPa | 0 mm | - | - | - |
| 1777569603 | 22.22° C | 44% | 1010.9 hPa | 0 mm | - | - | - |
| 1777569303 | 22.22° C | 40% | 1010.9 hPa | 0 mm | - | - | - |
| 1777569004 | 22.22° C | 42% | 1010.9 hPa | 0 mm | - | - | - |
| 1777568704 | 22.22° C | 44% | 1010.9 hPa | 0 mm | - | - | - |
| 1777568404 | 22.22° C | 44% | 1011 hPa | 0 mm | - | - | - |
| 1777568104 | 21.67° C | 47% | 1011 hPa | 0 mm | - | - | - |
| 1777567804 | 21.67° C | 44% | 1011 hPa | 0 mm | - | - | - |
| 1777567504 | 21.67° C | 43% | 1011.1 hPa | 0 mm | - | - | - |
| 1777567204 | 21.67° C | 46% | 1011 hPa | 0 mm | - | - | - |
| 1777566903 | 21.67° C | 45% | 1011.1 hPa | 0 mm | - | - | - |
| 1777566604 | 22.22° C | 52% | 1011.1 hPa | 0 mm | - | - | - |
| 1777566303 | 22.22° C | 55% | 1011.1 hPa | 0 mm | - | - | - |
| 1777566004 | 21.11° C | 57% | 1011.2 hPa | 0 mm | - | - | - |
| 1777565703 | 20.56° C | 61% | 1011.3 hPa | 0 mm | - | - | - |
| 1777565404 | 20.56° C | 57% | 1011.3 hPa | 0 mm | - | - | - |
| 1777565104 | 21.11° C | 56% | 1011.3 hPa | 0 mm | - | - | - |
| 1777564803 | 21.11° C | 59% | 1011.4 hPa | 0 mm | - | - | - |
| 1777564504 | 20.56° C | 57% | 1011.3 hPa | 0 mm | - | - | - |
| 1777564204 | 20.56° C | 60% | 1011.4 hPa | 0 mm | - | - | - |
| 1777563903 | 20° C | 57% | 1011.4 hPa | 0 mm | - | - | - |
* Rain latest hour (hover to see other rain measurements)
** Current wind speed in m/s (hover to see current wind gust speed)